RJA505 OJAI-HECA

Flight info

Callsign RJA505
Flight time 0h 42m
Altitude 32000
Route MUVIN L53 TALMI T99 TOMAL J10 AMMIT Y64 MIRTA Q163 FIKER DCT ELIGI V606 LONIR
Aircraft A320/M-SDE3FGHIRWY/LB1

Departure

Time 2026-04-28 17:56
Airport Queen Alia International Airport (OJAI)

Arrival

Time 2026-04-28 18:38
Airport Cairo International Airport (HECA)
Time Latitude Longitude Altitude Speed Heading
2026-04-28 17:31 31.72433 35.98767 2377 ft 0 kts 120°
2026-04-28 17:37 31.72434 35.98767 2377 ft 0 kts 120°
2026-04-28 17:47 31.72437 35.98760 2373 ft 2 kts 119°
2026-04-28 17:47 31.72445 35.98743 2375 ft 2 kts 120°
2026-04-28 17:47 31.72451 35.98732 2377 ft 2 kts 121°
2026-04-28 17:48 31.72463 35.98710 2378 ft 2 kts 128°
2026-04-28 17:48 31.72473 35.98695 2374 ft 2 kts 125°
2026-04-28 17:48 31.72481 35.98679 2372 ft 2 kts 115°
2026-04-28 17:48 31.72487 35.98662 2372 ft 1 kts 90°
2026-04-28 17:49 31.72487 35.98658 2372 ft 0 kts 79°
2026-04-28 17:50 31.72494 35.98697 2379 ft 11 kts 80°
2026-04-28 17:50 31.72511 35.98816 2373 ft 16 kts 81°
2026-04-28 17:51 31.72567 35.98909 2373 ft 15 kts
2026-04-28 17:51 31.72631 35.98899 2374 ft 16 kts 351°
2026-04-28 17:51 31.72685 35.98968 2374 ft 11 kts 73°
2026-04-28 17:51 31.72712 35.99115 2375 ft 22 kts 81°
2026-04-28 17:52 31.72728 35.99232 2375 ft 22 kts 81°
2026-04-28 17:52 31.72755 35.99415 2375 ft 23 kts 80°
2026-04-28 17:52 31.72811 35.99806 2378 ft 25 kts 80°
2026-04-28 17:53 31.72840 36.00010 2377 ft 26 kts 80°
2026-04-28 17:53 31.72871 36.00224 2378 ft 27 kts 81°
2026-04-28 17:53 31.72904 36.00446 2379 ft 28 kts 80°
2026-04-28 17:53 31.72935 36.00658 2379 ft 24 kts 80°
2026-04-28 17:54 31.73008 36.00779 2380 ft 18 kts
2026-04-28 17:54 31.73080 36.00765 2379 ft 8 kts 350°
2026-04-28 17:54 31.73163 36.00749 2379 ft 16 kts 347°
2026-04-28 17:54 31.73212 36.00642 2378 ft 20 kts 262°
2026-04-28 17:55 31.73166 36.00331 2378 ft 69 kts 261°
2026-04-28 17:55 31.73053 35.99553 2380 ft 121 kts 260°
2026-04-28 17:55 31.72888 35.98405 2374 ft 162 kts 260°
2026-04-28 17:55 31.72691 35.97080 2931 ft 160 kts 263°
2026-04-28 17:56 31.72496 35.95789 3587 ft 163 kts 264°
2026-04-28 17:56 31.72292 35.94406 3756 ft 185 kts 262°
2026-04-28 17:56 31.72071 35.92819 4020 ft 209 kts 265°
2026-04-28 17:56 31.71822 35.91037 4373 ft 233 kts 262°
2026-04-28 17:57 31.71108 35.89229 4739 ft 262 kts 228°
2026-04-28 17:57 31.69487 35.88156 5463 ft 277 kts 197°
2026-04-28 17:57 31.67564 35.87859 6410 ft 280 kts 184°
2026-04-28 17:57 31.65595 35.87838 7263 ft 283 kts 181°
2026-04-28 17:58 31.63609 35.87843 8081 ft 285 kts 183°
2026-04-28 17:58 31.61643 35.87783 8889 ft 287 kts 185°
2026-04-28 17:58 31.59630 35.87639 9692 ft 290 kts 186°
2026-04-28 17:58 31.58640 35.87542 10067 ft 291 kts 188°
2026-04-28 17:59 31.57097 35.87637 10588 ft 297 kts 173°
2026-04-28 17:59 31.55547 35.87759 11088 ft 298 kts 187°
2026-04-28 17:59 31.53695 35.87432 11760 ft 297 kts 194°
2026-04-28 17:59 31.51031 35.86801 12744 ft 300 kts 194°
2026-04-28 18:00 31.43728 35.85512 14497 ft 334 kts 188°
2026-04-28 18:00 31.35050 35.84726 15615 ft 376 kts 187°
2026-04-28 18:00 31.25096 35.83798 17787 ft 386 kts 188°
2026-04-28 18:00 31.15445 35.82820 19633 ft 396 kts 189°
2026-04-28 18:01 31.05967 35.81896 21401 ft 405 kts 189°
2026-04-28 18:01 30.95093 35.80826 22584 ft 417 kts 189°
2026-04-28 18:01 30.85558 35.79882 24192 ft 420 kts 189°
2026-04-28 18:01 30.77104 35.76822 25328 ft 411 kts 212°
2026-04-28 18:02 30.75096 35.74255 23200 ft 434 kts 232°
2026-04-28 18:02 30.72890 35.72359 23385 ft 448 kts 208°
2026-04-28 18:02 30.70558 35.71266 23608 ft 453 kts 204°
2026-04-28 18:02 30.65165 35.69194 25340 ft 426 kts 204°
2026-04-28 18:03 30.55444 35.63710 27122 ft 419 kts 212°
2026-04-28 18:03 30.46412 35.58221 28353 ft 426 kts 211°
2026-04-28 18:03 30.37923 35.53134 29839 ft 423 kts 212°
2026-04-28 18:03 30.27266 35.46716 31661 ft 415 kts 213°
2026-04-28 18:04 30.16429 35.41438 32043 ft 425 kts 203°
2026-04-28 18:04 30.04906 35.37157 32028 ft 434 kts 204°
2026-04-28 18:04 29.93675 35.32990 31925 ft 430 kts 204°
2026-04-28 18:04 29.82295 35.28797 31903 ft 428 kts 204°
2026-04-28 18:05 29.70938 35.24626 32026 ft 424 kts 204°
2026-04-28 18:05 29.63274 35.21804 31802 ft 437 kts 204°
2026-04-28 18:05 29.51516 35.10752 31935 ft 406 kts 235°
2026-04-28 18:05 29.45020 35.01992 31880 ft 406 kts 233°
2026-04-28 18:06 29.37492 34.94189 32049 ft 415 kts 218°
2026-04-28 18:06 29.27789 34.86469 31940 ft 420 kts 221°
2026-04-28 18:06 29.08753 34.71326 31824 ft 408 kts 229°
2026-04-28 18:07 29.05455 34.59982 31966 ft 392 kts 279°
2026-04-28 18:07 29.08970 34.47678 31968 ft 406 kts 285°
2026-04-28 18:07 29.16006 34.23428 31866 ft 398 kts 286°
2026-04-28 18:08 29.19483 34.11466 32037 ft 398 kts 285°
2026-04-28 18:08 29.23091 33.98982 32039 ft 412 kts 285°
2026-04-28 18:08 29.26576 33.86883 31991 ft 400 kts 285°
2026-04-28 18:08 29.30021 33.74862 31887 ft 401 kts 286°
2026-04-28 18:09 29.34177 33.60330 31949 ft 406 kts 288°
2026-04-28 18:09 29.35936 33.54194 31967 ft 405 kts 287°
2026-04-28 18:10 29.37691 33.48046 31967 ft 404 kts 287°
2026-04-28 18:10 29.39432 33.41910 31963 ft 404 kts 287°
2026-04-28 18:11 29.41172 33.35772 31964 ft 404 kts 287°
2026-04-28 18:11 29.42896 33.29653 31964 ft 404 kts 287°
2026-04-28 18:12 29.44618 33.23544 31966 ft 404 kts 287°
2026-04-28 18:12 29.46355 33.17389 31965 ft 404 kts 287°
2026-04-28 18:13 29.48088 33.11249 31959 ft 404 kts 288°
2026-04-28 18:13 29.49809 33.05100 31837 ft 405 kts 287°
2026-04-28 18:14 29.50671 33.02017 31582 ft 405 kts 287°
2026-04-28 18:14 29.51529 32.98943 31334 ft 405 kts 288°
2026-04-28 18:14 29.52384 32.95889 31096 ft 405 kts 288°
2026-04-28 18:14 29.53248 32.92798 30852 ft 406 kts 288°
2026-04-28 18:15 29.54110 32.89706 30612 ft 407 kts 287°
2026-04-28 18:15 29.54684 32.87637 30451 ft 407 kts 288°
2026-04-28 18:15 29.55824 32.83537 30136 ft 407 kts 288°
2026-04-28 18:15 29.56685 32.80440 29881 ft 407 kts 288°
2026-04-28 18:16 29.57550 32.77333 29600 ft 408 kts 288°
2026-04-28 18:16 29.58122 32.75278 29419 ft 408 kts 288°
2026-04-28 18:16 29.58934 32.72361 29158 ft 408 kts 288°
2026-04-28 18:16 29.59800 32.69243 28876 ft 407 kts 288°
2026-04-28 18:17 29.60610 32.66174 28628 ft 406 kts 286°
2026-04-28 18:17 29.61358 32.63032 28356 ft 405 kts 285°
2026-04-28 18:17 29.62054 32.59891 28094 ft 404 kts 284°
2026-04-28 18:17 29.62718 32.56797 27834 ft 403 kts 284°
2026-04-28 18:18 29.63393 32.53669 27574 ft 401 kts 284°
2026-04-28 18:18 29.64079 32.50553 27318 ft 400 kts 285°
2026-04-28 18:18 29.64773 32.47451 27055 ft 400 kts 285°
2026-04-28 18:18 29.65235 32.45401 26894 ft 399 kts 285°
2026-04-28 18:19 29.66164 32.41310 26567 ft 398 kts 285°
2026-04-28 18:19 29.66863 32.38225 26317 ft 397 kts 285°
2026-04-28 18:19 29.67553 32.35165 25852 ft 392 kts 285°
2026-04-28 18:19 29.68238 32.32124 25244 ft 390 kts 285°
2026-04-28 18:20 29.68906 32.29148 24664 ft 387 kts 285°
2026-04-28 18:20 29.69579 32.26148 24079 ft 385 kts 285°
2026-04-28 18:20 29.70252 32.23161 23480 ft 384 kts 285°
2026-04-28 18:20 29.70917 32.20192 22846 ft 382 kts 285°
2026-04-28 18:21 29.71559 32.17266 22254 ft 380 kts 285°
2026-04-28 18:21 29.72201 32.14321 21685 ft 377 kts 285°
2026-04-28 18:21 29.72831 32.11396 21109 ft 375 kts 285°
2026-04-28 18:21 29.73452 32.08496 20577 ft 372 kts 285°
2026-04-28 18:22 29.74058 32.05635 20041 ft 370 kts 285°
2026-04-28 18:22 29.74667 32.02747 19496 ft 369 kts 285°
2026-04-28 18:22 29.75267 31.99878 18970 ft 367 kts 285°
2026-04-28 18:22 29.75858 31.97025 18449 ft 365 kts 285°
2026-04-28 18:23 29.76432 31.94230 17889 ft 363 kts 285°
2026-04-28 18:23 29.77008 31.91411 17293 ft 361 kts 285°
2026-04-28 18:23 29.77575 31.88607 16710 ft 359 kts 285°
2026-04-28 18:23 29.78097 31.86004 16183 ft 357 kts 285°
2026-04-28 18:24 29.78629 31.83339 15643 ft 355 kts 285°
2026-04-28 18:24 29.79001 31.81463 15267 ft 353 kts 285°
2026-04-28 18:24 29.79721 31.77803 14534 ft 351 kts 285°
2026-04-28 18:24 29.80255 31.75067 14002 ft 349 kts 285°
2026-04-28 18:25 29.80783 31.72343 13446 ft 347 kts 285°
2026-04-28 18:25 29.81296 31.69654 12867 ft 345 kts 285°
2026-04-28 18:25 29.81800 31.66948 12318 ft 343 kts 285°
2026-04-28 18:26 29.81695 31.61589 11275 ft 346 kts 265°
2026-04-28 18:26 29.81319 31.58858 10752 ft 345 kts 265°
2026-04-28 18:26 29.80932 31.56163 10333 ft 341 kts 265°
2026-04-28 18:26 29.80536 31.53524 10204 ft 328 kts 265°
2026-04-28 18:27 29.80144 31.50979 10077 ft 317 kts 265°
2026-04-28 18:27 29.79765 31.48517 9969 ft 306 kts 265°
2026-04-28 18:27 29.79392 31.46138 9824 ft 297 kts 265°
2026-04-28 18:27 29.79026 31.43866 9685 ft 283 kts 265°
2026-04-28 18:28 29.78670 31.41712 9550 ft 263 kts 265°
2026-04-28 18:28 29.78329 31.39700 9351 ft 250 kts 265°
2026-04-28 18:28 29.77993 31.37764 8962 ft 244 kts 265°
2026-04-28 18:28 29.77668 31.35883 8565 ft 241 kts 265°
2026-04-28 18:29 29.77347 31.33994 8128 ft 239 kts 265°
2026-04-28 18:29 29.77031 31.32123 7686 ft 237 kts 265°
2026-04-28 18:29 29.76722 31.30268 7259 ft 235 kts 265°
2026-04-28 18:29 29.76492 31.28432 6827 ft 227 kts 279°
2026-04-28 18:30 29.76970 31.26790 6427 ft 213 kts 312°
2026-04-28 18:30 29.77675 31.26036 6111 ft 208 kts 328°
2026-04-28 18:30 29.79358 31.24964 5446 ft 208 kts 334°
2026-04-28 18:30 29.80646 31.24237 4972 ft 209 kts 335°
2026-04-28 18:31 29.81967 31.23502 4512 ft 208 kts 335°
2026-04-28 18:31 29.83254 31.22785 4071 ft 206 kts 335°
2026-04-28 18:31 29.84544 31.22067 3647 ft 204 kts 335°
2026-04-28 18:31 29.85844 31.21454 3206 ft 201 kts 351°
2026-04-28 18:32 29.87227 31.21593 2789 ft 200 kts 12°
2026-04-28 18:32 29.88542 31.22042 2468 ft 197 kts 14°
2026-04-28 18:32 29.89861 31.22536 2474 ft 200 kts 14°
2026-04-28 18:32 29.91217 31.22948 2480 ft 203 kts
2026-04-28 18:33 29.92606 31.23242 2483 ft 204 kts
2026-04-28 18:33 29.94009 31.23510 2486 ft 204 kts
2026-04-28 18:33 29.95411 31.23775 2486 ft 204 kts
2026-04-28 18:33 29.96802 31.24040 2488 ft 198 kts
2026-04-28 18:34 29.98079 31.24463 2490 ft 193 kts 24°
2026-04-28 18:34 29.99125 31.25417 2488 ft 193 kts 43°
2026-04-28 18:34 30.00004 31.26584 2497 ft 191 kts 44°
2026-04-28 18:34 30.00879 31.27746 2498 ft 192 kts 44°
2026-04-28 18:35 30.01731 31.28880 2520 ft 180 kts 44°
2026-04-28 18:35 30.02510 31.29917 2473 ft 165 kts 43°
2026-04-28 18:35 30.03255 31.30905 2338 ft 156 kts 43°
2026-04-28 18:35 30.03935 31.31808 2157 ft 148 kts 42°
2026-04-28 18:36 30.04589 31.32676 1988 ft 138 kts 43°
2026-04-28 18:36 30.05216 31.33506 1810 ft 136 kts 43°
2026-04-28 18:36 30.05832 31.34324 1625 ft 135 kts 43°
2026-04-28 18:36 30.06449 31.35143 1441 ft 135 kts 43°
2026-04-28 18:37 30.07070 31.35967 1275 ft 135 kts 43°
2026-04-28 18:37 30.07693 31.36792 1099 ft 137 kts 44°
2026-04-28 18:37 30.08329 31.37610 928 ft 137 kts 40°
2026-04-28 18:37 30.08922 31.38405 746 ft 137 kts 45°
2026-04-28 18:38 30.09536 31.39235 563 ft 135 kts 47°
2026-04-28 18:38 30.10150 31.40061 400 ft 136 kts 44°
2026-04-28 18:38 30.10676 31.40763 387 ft 91 kts 49°
2026-04-28 18:38 30.10984 31.41175 388 ft 47 kts 49°
2026-04-28 18:39 30.11167 31.41417 388 ft 38 kts 49°
2026-04-28 18:39 30.11280 31.41530 387 ft 17 kts 29°
2026-04-28 18:39 30.11384 31.41587 383 ft 18 kts 20°
2026-04-28 18:39 30.11479 31.41624 379 ft 14 kts 18°
2026-04-28 18:40 30.11511 31.41632 378 ft 7 kts
2026-04-28 18:40 30.11583 31.41613 373 ft 15 kts 342°
2026-04-28 18:40 30.11556 31.41539 375 ft 19 kts 229°
2026-04-28 18:40 30.11456 31.41405 375 ft 23 kts 227°
2026-04-28 18:41 30.11401 31.41293 373 ft 14 kts 297°
2026-04-28 18:41 30.11395 31.41162 368 ft 23 kts 226°
2026-04-28 18:41 30.11290 31.41025 369 ft 25 kts 230°
2026-04-28 18:41 30.11178 31.40874 367 ft 28 kts 228°
2026-04-28 18:42 30.11062 31.40721 367 ft 21 kts 229°
2026-04-28 18:42 30.11026 31.40673 367 ft 4 kts 236°
2026-04-28 18:42 30.11058 31.40594 366 ft 15 kts 320°
2026-04-28 18:42 30.11186 31.40471 356 ft 25 kts 319°
2026-04-28 18:43 30.11289 31.40343 342 ft 19 kts 288°
2026-04-28 18:43 30.11282 31.40238 338 ft 9 kts 217°
2026-04-28 18:43 30.11235 31.40221 340 ft 6 kts 197°